Location: Newark
(12.4436°N, 0.6167°W)
Time: 06:55:18
(UTC+00:00)

Vanguard 2 - Pass Details

Date: 17 December 2019
Orbit: 553 x 2938 km, 32.9° (Epoch: 26 January)

Event Time Altitude Azimuth Distance (km) Brightness Sun altitude
Rises 03:35:24 0° 303° (WNW) 6,230 - -37.5°
Reaches altitude 10° 03:39:39 10° 310° (NW) 5,439 - -36.5°
Exits shadow 03:49:12 35° 337° (NNW) 4,028 10.7 -34.3°
Maximum altitude 03:55:52 45° 18° (NNE) 3,641 10.8 -32.8°
Drops below altitude 10° 04:11:25 10° 86° (E) 5,263 12.5 -29.2°
Sets 04:15:24 0° 93° (E) 6,025 13.2 -28.3°
